Regional Weather Roundup
Issued by NWS Newport/Morehead, NC

Current Version | Previous Version | Graphics & Text | Print | Product List | Glossary On
Versions: 1 2 3 4 5 6 7 8 9 10 11 12 13 14 15 16 17 18 19 20 21 22 23 24 25 26 27 28 29 30 31 32 33 34 35 36 37 38 39 40 41 42 43 44 45 46 47 48 49 50
000 ASUS42 KMHX 271413 RWRMHX WEATHER ROUNDUP FOR EASTERN NORTH CAROLINA NATIONAL WEATHER SERVICE NEWPORT/MOREHEAD CITY NC 1000 AM EDT SAT MAY 27 2017 NOTE: "FAIR" INDICATES FEW OR NO CLOUDS BELOW 12,000 FEET WITH NO SIGNIFICANT WEATHER AND/OR OBSTRUCTIONS TO VISIBILITY NCZ015>017-031-032-045>047-102-103-271500- NORTH COAST CITY SKY/WX TMP DP RH WIND PRES REMARKS EDENTON SUNNY 77 64 62 CALM 29.94F ELIZABETH CITY SUNNY 77 63 61 CALM 29.94S KITTY HAWK SUNNY 76 59 54 CALM 29.94S MANTEO SUNNY 77 60 56 W3 29.95S $$ NCZ045>047-081-094-103-104-271500- CENTRAL COAST CITY SKY/WX TMP DP RH WIND PRES REMARKS FRISCO SUNNY 77 66 68 SW8 29.96S $$ NCZ095-097-098-100-101-271500- SOUTHERN COAST CITY SKY/WX TMP DP RH WIND PRES REMARKS BEAUFORT SUNNY 78 65 63 SW10 29.97F CEDAR ISLAND NOT AVBL JACKSONVILLE SUNNY 79 63 57 W8 29.96F PINEY ISLAND SUNNY N/A N/A N/A SW10 29.96S WILMINGTON SUNNY 80 62 54 S8 29.97F $$ NCZ011>013-027>030-043-044-078>080-089-090>093-098-271500- COASTAL PLAIN CITY SKY/WX TMP DP RH WIND PRES REMARKS AHOSKIE NOT AVBL CLINTON SUNNY 77 64 64 W3 29.97S ELIZABETHTOWN SUNNY 79 64 59 W7 29.97F GOLDSBORO NOT AVBL GREENVILLE SUNNY 77 63 61 W3 29.97S HAZE HAVELOCK SUNNY 81 61 50 SW9 29.97F KENANSVILLE SUNNY 79 63 57 W8 29.96F KINSTON SUNNY 79 61 53 SW7 29.96F NEW BERN SUNNY 79 63 57 SW7 29.97F RICHLANDS SUNNY 80 64 58 SW9 29.97F ROCKY MOUNT SUNNY 76 64 66 CALM 29.94F WASHINGTON SUNNY 78 63 59 W5 29.95S WHITEVILLE SUNNY 78 64 61 SW5 29.98S $$ AMZ130-135-150-152-154-156-158-170-250-252-270-ANZ085-086-088-633-658-670-271500- MARINE OBSERVATIONS STATION/POSITION TIME TEMP WIND PRES WAVE SWELL AIR SEA DIR/SP/G HT/PER HT/PER (UTC) (F) (DEG/KT/KT) (MB) (FT/S) (FT/S) CHESAPEAKE LIGHT NOT AVBL 64 E VA BEACH 1350 65 63 170/ 4/ 4 1014.6 3/ 7 3/ 7 DUCK 1348 67 63 60/ 7/ 8 1013.5 2 E DUCK 1300 64 N/A 1/ 8 OREGON INLET 1348 210/ 7/ 8 N/A 13E OREGON INLT 1348 68 N/A 3/ 7 3/ 7 HATTERAS CG 1348 76 72 250/ 6/ 9 1014.5 DIAMOND BUOY 1350 76 77 260/ 10/ 12 1014.6 3/ 8 3/ 8 CAPE LOOKOUT 1400 76 250/ 9/ 12 1014.8 BEAUFORT LAB 1348 77 71 230/ 5/ 9 1014.3 30 SE NEW RVR IN 1308 76 77 260/ 12/ 14 1015.7 30 SE NEW RVR IN 1343 77 N/A 3/ 6 27 SE WRIGHTSVLE 1308 75 77 230/ 12/ 16 1015.1 5 SE WRIGHTSVLE 1308 75 74 230/ 8/ 12 1015.3 225 S CAPE HAT 1250 76 77 270/ 10/ 12 1017.3 4/ 6 3/ 6 41 SE CHARLESTON 1350 75 74 230/ 12/ 16 1016.6 3/ 7 2/ 7 $$

USA.gov is the U.S. government's official web portal to all federal, state and local government web resources and services.